Weather History for Chadron, NE

Change the Weather History Date:

Wednesday, May 7, 2014

  Actual Average Record
Temperature  
Mean Temperature 45 °F 53 °F  
Max Temperature 56 °F 68 °F 92 °F (1934)
Min Temperature 34 °F 38 °F 23 °F (2010)
Degree Days  
Heating Degree Days 20 13  
Month to date heating degree days 80 96  
Since 1 July heating degree days 6998 6859  
Cooling Degree Days 0 0  
Month to date cooling degree days 0 0  
Year to date cooling degree days 1 2  
Moisture  
Dew Point 42 °F    
Average Humidity 89    
Maximum Humidity 100    
Minimum Humidity 77    
Precipitation  
Precipitation 0.75 in 0.08 in 1.05 in (1926)
Month to date precipitation 0.75 0.59  
Year to date precipitation 5.05 4.77  
Sea Level Pressure  
Sea Level Pressure 29.80 in    
Wind  
Wind Speed 11 mph (NNE)    
Max Wind Speed 23 mph    
Max Gust Speed 29 mph    
Visibility 6 miles    
Events Rain , Thunderstorm    
T = Trace of Precipitation, MM = Missing Value Source: NWS Daily Summary

Daily Weather History Graph

Daily Weather History Graph

Search for Another Location

Airport:

Trip Planner

Search our weather history database for the weather conditions in past years. The results will help you decide how hot, cold, wet, or windy it might be!

Date:

Astronomy

May. 07, 2014 Rise Set
Actual Time 5:38 AM MDT 7:59 PM MDT
Civil Twilight 5:07 AM MDT 8:31 PM MDT
Nautical Twilight 4:27 AM MDT 9:10 PM MDT
Astronomical Twilight 3:44 AM MDT 9:54 PM MDT
Moon 12:57 PM MDT (5/7) 1:49 AM MDT (5/7)
Length of Visible Light 15h 24m
Length of Day
14h 21m
First Quarter, 56% of the Moon is Illuminated
May 7
First Quarter
May 14
Full
May 21
Last Quarter
May 28
New
Jun 5
First Quarter

Hourly Weather History & Observations

Time (MDT) Temp. Windchill Dew Point Humidity Pressure Visibility Wind Dir Wind Speed Gust Speed Precip Events Conditions
12:07 AM 53.6 °F - 48.2 °F 82% 29.68 in 10.0 mi Calm Calm - N/A   Mostly Cloudy
12:53 AM 53.1 °F - 48.0 °F 83% 29.62 in 10.0 mi NE 8.1 mph - N/A   Overcast
1:53 AM 52.0 °F - 48.0 °F 86% 29.61 in 10.0 mi NE 12.7 mph - N/A   Clear
3:32 AM 51.8 °F - 48.2 °F 88% 29.67 in 9.0 mi NNE 11.5 mph - N/A   Mostly Cloudy
3:53 AM 52.0 °F - 48.0 °F 86% 29.66 in 9.0 mi NNE 10.4 mph - N/A   Overcast
4:31 AM 51.8 °F - 48.2 °F 88% 29.68 in 8.0 mi NNE 12.7 mph - N/A   Mostly Cloudy
4:53 AM 52.0 °F - 48.9 °F 89% 29.66 in 8.0 mi NNE 11.5 mph - N/A   Overcast
5:03 AM 51.8 °F - 48.2 °F 88% 29.69 in 8.0 mi NNE 12.7 mph - N/A   Overcast
6:53 AM 51.1 °F - 46.9 °F 86% 29.71 in 10.0 mi Calm Calm - N/A   Overcast
7:53 AM 54.0 °F - 48.9 °F 83% 29.71 in 8.0 mi NNE 3.5 mph - N/A   Scattered Clouds
8:53 AM 55.9 °F - 48.9 °F 77% 29.73 in 9.0 mi NNW 8.1 mph - N/A   Overcast
9:53 AM 55.0 °F - 48.0 °F 77% 29.74 in 10.0 mi NNW 8.1 mph - N/A   Overcast
10:53 AM 54.0 °F - 48.0 °F 80% 29.76 in 10.0 mi North 12.7 mph - N/A   Overcast
11:19 AM 53.6 °F - 48.2 °F 82% 29.77 in 8.0 mi NNE 13.8 mph - N/A   Overcast
11:53 AM 53.1 °F - 48.0 °F 83% 29.78 in 6.0 mi NNE 11.5 mph - N/A   Haze
12:08 PM 51.8 °F - 48.2 °F 88% 29.79 in 2.0 mi North 8.1 mph - 0.00 in Rain Light Rain
12:26 PM 48.2 °F - 46.4 °F 93% 29.79 in 2.0 mi NW 5.8 mph 16.1 mph 0.00 in Rain Light Rain
12:36 PM 48.2 °F - 46.4 °F 93% 29.79 in 1.5 mi NW 9.2 mph - 0.01 in Rain Light Rain
12:53 PM 48.9 °F - 48.0 °F 97% 29.81 in 1.0 mi NNW 4.6 mph - 0.03 in Rain Light Rain
1:20 PM 48.2 °F - 46.4 °F 93% 29.79 in 2.0 mi NNE 8.1 mph - 0.01 in Rain Light Rain
1:24 PM 48.2 °F - 46.4 °F 93% 29.79 in 2.0 mi NNE 8.1 mph - 0.01 in Rain Light Rain
1:48 PM 48.2 °F - 46.4 °F 93% 29.79 in 3.0 mi NNE 10.4 mph - 0.01 in Rain Light Rain
1:53 PM 48.9 °F - 46.9 °F 93% 29.80 in 3.0 mi NNE 10.4 mph - 0.01 in Rain Light Rain
2:17 PM 48.2 °F - 46.4 °F 93% 29.79 in 3.0 mi North 8.1 mph - 0.00 in   Overcast
2:46 PM 48.2 °F - 46.4 °F 93% 29.79 in 9.0 mi North 9.2 mph - 0.00 in   Overcast
2:53 PM 48.9 °F - 46.0 °F 90% 29.80 in 10.0 mi North 9.2 mph - 0.00 in   Overcast
3:33 PM 48.2 °F - 44.6 °F 87% 29.78 in 9.0 mi NNE 11.5 mph - 0.01 in   Overcast
3:42 PM 48.2 °F - 44.6 °F 87% 29.78 in 9.0 mi NNE 11.5 mph - 0.01 in   Overcast
3:53 PM 48.0 °F - 44.1 °F 86% 29.79 in 9.0 mi NNE 15.0 mph - 0.01 in   Overcast
4:53 PM 45.0 °F 37.4 °F 41.0 °F 86% 29.80 in 10.0 mi NNE 18.4 mph 24.2 mph 0.00 in   Overcast
5:33 PM 42.8 °F 34.3 °F 39.2 °F 87% 29.78 in 10.0 mi North 19.6 mph - N/A Thunderstorm Overcast
5:53 PM 43.0 °F 37.2 °F 39.0 °F 86% 29.86 in 3.0 mi NNE 10.4 mph - 0.04 in Rain , Thunderstorm Light Thunderstorms and Rain
5:56 PM 42.8 °F 36.2 °F 39.2 °F 87% 29.83 in 1.8 mi NE 12.7 mph - 0.07 in Rain , Thunderstorm Heavy Thunderstorms and Rain
6:09 PM 41.0 °F 32.2 °F 37.4 °F 87% 29.81 in 3.0 mi NNE 18.4 mph - 0.16 in Rain , Thunderstorm Light Thunderstorms and Rain
6:29 PM 41.0 °F 32.8 °F 37.4 °F 87% 29.83 in 7.0 mi North 16.1 mph - 0.16 in Rain , Thunderstorm Light Rain
6:49 PM 41.0 °F 32.2 °F 37.4 °F 87% 29.81 in 9.0 mi North 18.4 mph - 0.16 in Rain Light Rain
6:53 PM 41.0 °F 32.5 °F 37.9 °F 89% 29.85 in 8.0 mi North 17.3 mph 25.3 mph 0.17 in Rain Light Rain
6:56 PM 41.0 °F 32.8 °F 37.4 °F 87% 29.82 in 9.0 mi North 16.1 mph 25.3 mph 0.00 in Rain Light Rain
7:00 PM 41.0 °F 33.1 °F 37.4 °F 87% 29.82 in 9.0 mi North 15.0 mph - 0.00 in Rain , Thunderstorm Light Rain
7:33 PM 39.2 °F 33.6 °F 37.4 °F 93% 29.91 in 3.0 mi NNW 8.1 mph - 0.05 in Rain Heavy Rain
7:40 PM 37.4 °F 32.8 °F 35.6 °F 93% 29.92 in 2.0 mi North 5.8 mph - 0.11 in Rain Heavy Rain
7:48 PM 37.4 °F 30.8 °F 35.6 °F 93% 29.92 in 2.0 mi North 9.2 mph - 0.17 in Rain Heavy Rain
7:53 PM 37.0 °F 30.4 °F 35.1 °F 93% 29.96 in 2.0 mi NNE 9.2 mph - 0.20 in Rain Heavy Rain
8:08 PM 37.4 °F 32.1 °F 35.6 °F 93% 29.92 in 4.0 mi NNE 6.9 mph - 0.05 in Rain Rain
8:18 PM 37.4 °F 29.8 °F 35.6 °F 93% 29.91 in 2.5 mi NE 11.5 mph - 0.11 in Rain Heavy Rain
8:37 PM 37.4 °F 28.5 °F 35.6 °F 93% 29.88 in 3.0 mi NE 15.0 mph 23.0 mph 0.19 in Rain Rain
8:53 PM 37.0 °F 27.4 °F 36.0 °F 96% 29.89 in 5.0 mi ENE 17.3 mph - 0.23 in Rain Rain
9:00 PM 37.4 °F 28.9 °F 35.6 °F 93% 29.86 in 4.0 mi ENE 13.8 mph - 0.01 in Rain Rain
9:09 PM 37.4 °F 28.9 °F 35.6 °F 93% 29.87 in 5.0 mi ENE 13.8 mph 23.0 mph 0.02 in Rain Light Rain
9:16 PM 37.4 °F 27.8 °F 35.6 °F 93% 29.86 in 8.0 mi ENE 17.3 mph - 0.03 in Rain Light Rain
9:53 PM 36.0 °F 26.0 °F 35.1 °F 97% 29.88 in 10.0 mi NE 17.3 mph 27.6 mph 0.04 in   Overcast
10:53 PM 36.0 °F 26.0 °F 34.0 °F 93% 29.87 in 10.0 mi North 17.3 mph 26.5 mph N/A   Overcast
11:53 PM 36.0 °F 26.3 °F 35.1 °F 97% 29.91 in 10.0 mi North 16.1 mph - N/A   Overcast